Dewpoint
38 39 40 40 40 41 41 40 42 43 42 40 41 44 44 47 48 48 49 49 50 51 51 50 51 52 51 53 55 56 57 56 62 64 65 64 65 67 65 64 64 64 63
38 38 39 40 41 41 41 40 40 41 42 41 42 42 44 44 44 45 46 47 47 48 46 47 47 48 49 50 52 52 52 53 55 60 60 58 62 64 64 63 63 62 58
37 37 38 40 41 40 41 40 40 40 42 43 41 42 42 42 41 42 43 44 45 46 46 45 45 46 47 47 49 50 50 50 52 54 57 56 54 56 63 63 63 62 61
36 37 38 38 38 39 40 40 40 39 40 42 41 42 40 40 41 41 41 42 44 44 44 44 44 44 44 45 46 47 48 49 49 51 51 56 57 55 55 61 62 62 61
38 37 37 37 37 39 39 40 39 39 39 39 40 38 39 38 39 40 41 41 42 42 42 42 42 42 42 43 44 45 45 47 47 48 50 52 51 54 56 54 56 61 61
37 37 37 37 37 38 38 39 38 37 38 38 38 38 38 37 36 36 37 38 38 39 40 39 40 40 41 41 42 43 44 45 47 47 48 49 50 50 50 53 55 55 56
37 37 36 36 36 36 37 36 36 35 37 37 37 37 36 37 36 35 35 35 37 36 37 38 38 38 39 39 40 41 42 44 45 47 47 47 49 50 50 51 51 52 55
38 37 36 35 34 34 35 35 35 34 35 35 35 35 35 34 34 34 34 34 34 35 36 37 37 37 37 38 38 39 41 42 43 44 45 46 46 47 49 50 51 50 52
38 37 36 35 33 33 34 35 34 33 34 34 35 34 33 34 33 33 34 33 34 33 34 35 35 35 36 37 37 38 38 38 39 40 42 43 45 46 46 48 49 50 48
37 36 35 33 33 33 33 34 34 33 33 34 33 33 33 33 33 33 32 33 33 33 33 33 34 34 35 35 35 35 35 35 36 36 38 39 37 39 41 42 44 47 51
36 36 34 31 32 32 32 33 33 33 33 33 33 33 33 33 32 32 32 32 33 32 32 32 33 33 33 34 34 33 33 33 33 34 34 33 34 36 37 38 40 42 46
36 34 31 30 30 31 31 31 32 32 32 32 32 33 33 32 32 31 31 33 33 32 31 32 32 32 31 32 33 33 32 32 32 32 32 32 32 33 34 35 38 40 42
35 32 30 29 29 30 30 30 31 31 31 31 31 31 31 29 29 29 29 29 29 29 29 29 29 29 29 30 32 32 32 32 32 32 32 31 31 32 32 34 35 36 36
34 31 30 29 28 29 29 30 31 31 30 30 30 29 28 27 27 27 28 28 27 26 26 28 27 27 26 27 30 30 30 30 30 32 31 31 31 31 32 31 32 32 33
32 31 29 28 28 28 29 29 29 30 29 29 29 28 27 27 27 28 27 27 27 26 25 26 25 24 22 23 27 28 28 28 28 29 28 29 30 30 32 31 31 30 30
31 30 28 27 27 27 28 28 28 27 26 25 25 26 26 25 26 26 26 26 25 24 25 25 24 22 17 24 26 27 26 26 25 24 25 26 28 28 31 31 31 31 30
31 29 28 28 28 28 28 28 27 25 23 23 23 24 26 25 26 25 25 25 25 24 25 24 24 22 20 22 25 27 27 26 25 25 24 22 22 26 27 29 29 30 29
31 31 31 29 29 29 28 28 26 25 23 23 23 23 24 24 25 25 26 27 28 27 26 24 24 24 22 21 22 26 28 29 27 26 23 23 24 24 24 24 25 29 30
35 35 32 30 31 30 29 27 24 23 21 23 24 24 24 25 25 25 26 27 27 27 26 26 23 22 23 20 20 23 29 29 28 26 23 21 22 20 22 22 24 24 27
35 35 35 33 31 33 29 26 24 24 25 24 23 22 24 24 25 26 25 28 28 27 27 26 25 22 23 20 19 21 22 23 23 24 24 18 19 18 19 22 22 20 24
34 32 30 31 31 32 33 30 28 26 25 24 23 23 22 25 26 26 28 28 27 27 26 26 26 25 23 23 19 18 21 22 20 19 21 22 17 18 18 18 20 20 23
32 29 29 29 28 26 25 26 26 28 26 24 24 25 24 22 24 26 27 27 28 25 24 24 24 26 24 19 18 18 17 18 20 19 19 20 16 17 17 18 17 18 20
29 27 26 25 23 21 21 21 23 24 24 23 24 24 23 24 21 22 24 23 26 23 22 21 21 21 22 22 17 17 16 16 20 21 18 16 16 16 18 16 16 18 20
26 24 24 22 21 20 19 21 20 19 19 19 18 17 17 17 17 16 16 16 18 19 19 19 18 18 17 17 18 19 19 17 18 19 20 18 18 16 17 18 19 19 19
28 24 23 22 21 18 18 17 16 14 14 14 14 14 15 15 15 15 17 15 17 15 15 17 19 16 15 16 15 15 17 19 18 19 19 19 19 18 18 18 16 18 17
27 25 24 22 19 17 17 15 15 14 13 13 13 14 13 12 11 12 14 14 13 12 12 13 14 18 13 13 13 13 12 12 13 16 17 18 17 16 15 15 15 15 13
Lifted_Index
10 11 11 11 11 11 10 10 9 9 8 8 8 7 6 6 7 7 8 8 7 6 6 5 5 6 6 7 6 5 4 3 1 -0 -1 -2 -2 -3 -3 -2 -1 -0 -0
10 10 11 11 11 11 11 11 11 10 10 10 9 9 8 8 8 9 9 9 8 8 7 7 6 7 7 7 7 7 6 5 3 1 0 -1 -1 -2 -3 -2 -1 -1 -0
9 10 10 11 11 11 11 12 12 12 11 11 11 10 10 9 9 9 10 10 10 9 9 8 7 7 7 7 7 7 7 6 5 4 2 1 0 -1 -2 -2 -2 -1 -1
9 10 10 10 10 11 11 12 12 12 11 11 10 9 9 9 9 9 9 10 10 9 9 8 7 7 7 7 7 7 7 7 6 6 4 3 2 1 -1 -2 -2 -2 -1
9 9 9 10 10 11 11 11 12 12 11 10 10 9 8 8 8 8 8 9 9 9 8 8 7 7 6 6 6 6 6 6 6 6 5 5 4 2 1 -0 -1 -2 -2
8 9 9 9 10 10 11 11 11 11 11 10 10 9 8 8 8 7 7 7 8 8 8 7 7 7 7 7 6 6 5 5 5 5 5 5 4 3 2 1 0 -1 -1
8 8 9 9 10 10 11 12 12 11 11 10 10 10 9 9 9 8 7 7 8 8 8 8 7 7 8 8 7 6 6 6 5 5 5 5 4 4 3 3 2 1 1
7 7 8 9 10 11 11 12 11 11 10 10 10 10 10 10 10 9 9 9 9 9 10 9 9 9 9 9 9 7 7 7 7 6 5 5 5 5 4 4 4 3 3
6 7 7 9 10 11 11 11 11 10 10 10 10 10 10 11 11 11 11 11 11 11 12 12 11 11 11 10 10 9 8 8 8 7 6 6 6 6 5 4 4 4 4
5 6 7 8 9 10 10 10 10 10 10 10 10 10 11 11 11 12 12 12 12 13 13 13 12 12 12 11 11 10 10 9 9 8 8 7 6 6 5 4 4 4 4
4 5 6 8 9 9 10 10 10 10 10 10 10 11 11 11 12 12 12 12 13 13 14 14 14 14 13 13 12 12 11 10 10 9 9 7 6 6 4 4 3 3 3
4 5 6 7 8 8 9 10 10 10 11 11 11 11 11 12 12 13 13 14 14 14 15 16 16 15 14 14 14 13 12 11 11 11 10 9 7 6 4 3 3 2 2
3 4 6 6 7 7 9 9 10 11 11 12 11 11 12 13 14 15 15 15 16 16 17 17 18 17 16 15 15 14 13 13 13 13 12 11 9 7 5 4 3 3 3
3 4 5 5 6 7 8 10 10 11 12 12 11 11 13 14 15 16 17 17 17 18 18 19 19 18 17 16 16 16 15 14 14 15 14 13 12 10 8 7 5 4 4
2 3 4 4 5 7 8 10 11 11 12 12 11 12 14 15 16 17 18 18 18 19 19 19 20 19 19 18 18 17 17 16 16 16 16 15 15 13 12 10 9 7 6
2 3 3 4 5 7 9 10 11 11 12 12 12 13 15 16 17 18 18 18 19 19 19 19 20 20 20 20 19 19 19 19 18 17 17 17 17 16 15 14 13 11 10
2 2 3 4 6 8 9 10 11 11 12 12 13 14 15 16 17 17 17 17 18 18 19 19 19 19 20 20 20 20 20 20 20 20 20 20 19 19 18 17 16 14 13
3 3 4 5 7 8 10 11 11 11 12 13 14 14 15 15 16 16 16 17 17 17 18 18 19 19 19 19 20 20 20 20 20 21 21 21 21 21 20 19 18 17 16
4 4 5 6 8 9 10 11 11 11 12 13 14 15 15 15 15 16 16 17 17 17 18 18 19 19 19 19 19 19 19 19 20 20 21 21 21 21 20 20 19 18 18
4 5 6 8 9 10 10 11 11 12 13 14 15 15 16 16 16 16 16 17 17 18 18 18 19 19 20 20 20 20 19 19 19 20 21 21 21 21 21 20 19 19 19
5 6 7 8 9 10 11 11 12 13 15 16 16 16 16 16 16 16 17 17 17 18 18 18 19 20 20 21 21 21 20 20 20 20 21 22 22 22 21 21 20 20 20
6 7 8 9 10 11 12 12 13 15 16 16 16 16 16 16 17 17 17 17 18 17 17 18 18 19 21 22 22 22 22 22 21 21 22 23 23 23 22 22 22 21 21
7 8 9 10 11 13 13 13 14 15 16 16 16 16 16 17 17 17 17 18 18 17 17 17 18 19 21 22 23 23 23 23 23 23 24 24 24 24 24 23 23 23 23
8 9 10 11 12 14 14 15 15 16 16 16 16 16 16 17 17 18 18 18 18 18 18 18 19 19 21 22 24 24 24 24 24 24 24 24 24 24 24 24 24 24 24
10 11 12 12 13 14 15 15 16 16 16 16 16 16 17 17 18 18 19 19 20 20 20 20 21 21 22 23 25 25 25 24 24 24 24 24 23 23 24 24 25 25 25
11 12 13 13 14 15 16 16 16 16 15 15 16 16 17 18 18 18 19 20 21 22 22 22 22 23 23 24 25 25 25 25 25 24 23 23 23 23 23 24 25 25 26